Bloomington, IN

2:25 PM EDT on July 23, 2016 (GMT -0400)
Monroe County

Weather History for KBMG - January, 2006

Change the Weather History Date:

Friday, January 20, 2006

  Actual Average Record
Temperature  
Mean Temperature 57 °F 29 °F  
Max Temperature 60 °F 39 °F 60 °F (2006)
Min Temperature 54 °F 20 °F 0 °F (2008)
Degree Days  
Heating Degree Days 8 36  
Month to date heating degree days 720  
Since 1 July heating degree days 2793  
Cooling Degree Days 0 0  
Month to date cooling degree days 0  
Year to date cooling degree days 0  
Growing Degree Days 7 (Base 50)    
Moisture  
Dew Point 46 °F    
Average Humidity 65    
Maximum Humidity 72    
Minimum Humidity 62    
Precipitation  
Precipitation 0.01 in 0.07 in 0.29 in (2011)
Month to date precipitation 2.39  
Year to date precipitation 2.39  
Sea Level Pressure  
Sea Level Pressure 29.98 in    
Wind  
Wind Speed 13 mph (SSW)    
Max Wind Speed 18 mph    
Max Gust Speed 28 mph    
Visibility 10 miles    
Events Rain    
T = Trace of Precipitation, MM = Missing Value Source: NWS Daily Summary

Daily Weather History Graph

Daily Weather History Graph

Search for Another Location

Airport or City:

Trip Planner

Search our weather history database for the weather conditions in past years. The results will help you decide how hot, cold, wet, or windy it might be!

Date:

Astronomy

Jan. 20, 2006 Rise Set
Actual Time 8:01 AM EST 5:53 PM EST
Civil Twilight 7:32 AM EST 6:22 PM EST
Nautical Twilight 7:00 AM EST 6:55 PM EST
Astronomical Twilight 6:28 AM EST 7:27 PM EST
Moon No Moon Rise 11:05 AM EST (1/20)
Length of Visible Light 10h 49m
Length of Day
9h 51m
Waning Gibbous, 68% of the Moon is Illuminated
Jan 20
Waning Gibbous
Jan 22
Last Quarter
Jan 29
New
Feb 5
First Quarter
Feb 12
Full

Hourly Weather History & Observations

Time (EST) Temp. Dew Point Humidity Pressure Visibility Wind Dir Wind Speed Gust Speed Precip Events Conditions
12:53 AM 57.0 °F 44.1 °F 62% 29.99 in 10.0 mi SSW 17.3 mph 26.5 mph N/A   Overcast
1:53 AM 55.9 °F 44.1 °F 64% 29.99 in 10.0 mi SSW 13.8 mph 21.9 mph N/A   Overcast
2:53 AM 55.9 °F 44.1 °F 64% 30.01 in 10.0 mi SSW 10.4 mph 21.9 mph N/A   Overcast
3:53 AM 55.9 °F 44.1 °F 64% 30.02 in 10.0 mi SSW 13.8 mph 19.6 mph N/A   Overcast
4:53 AM 54.0 °F 43.0 °F 66% 30.02 in 10.0 mi SSW 12.7 mph - N/A   Mostly Cloudy
5:53 AM 54.0 °F 42.1 °F 64% 30.03 in 10.0 mi SSW 10.4 mph - N/A   Scattered Clouds
6:53 AM 54.0 °F 43.0 °F 66% 30.04 in 10.0 mi SSW 12.7 mph - N/A   Overcast
7:53 AM 54.0 °F 43.0 °F 66% 30.04 in 10.0 mi SSW 11.5 mph - N/A   Partly Cloudy
8:53 AM 54.0 °F 44.1 °F 69% 30.06 in 10.0 mi SSW 10.4 mph - N/A   Overcast
9:53 AM 55.9 °F 45.0 °F 67% 30.07 in 10.0 mi SSW 12.7 mph - N/A   Mostly Cloudy
10:53 AM 57.0 °F 45.0 °F 64% 30.07 in 10.0 mi SSW 18.4 mph 24.2 mph N/A   Overcast
11:53 AM 57.0 °F 46.0 °F 67% 30.05 in 10.0 mi SSW 11.5 mph - N/A   Overcast
12:53 PM 60.1 °F 46.9 °F 62% 30.02 in 10.0 mi SSW 11.5 mph - N/A   Overcast
1:53 PM 60.1 °F 46.9 °F 62% 29.99 in 10.0 mi South 13.8 mph - N/A   Overcast
2:53 PM 60.1 °F 48.0 °F 64% 29.98 in 10.0 mi SSW 13.8 mph - N/A   Overcast
3:53 PM 60.1 °F 48.0 °F 64% 29.97 in 10.0 mi SSW 10.4 mph - N/A   Overcast
4:53 PM 59.0 °F 46.9 °F 64% 29.96 in 10.0 mi South 12.7 mph 20.7 mph N/A   Overcast
5:53 PM 59.0 °F 46.9 °F 64% 29.95 in 10.0 mi South 11.5 mph - N/A   Overcast
6:53 PM 57.9 °F 48.0 °F 70% 29.93 in 10.0 mi SSE 6.9 mph - N/A   Overcast
7:53 PM 59.0 °F 46.9 °F 64% 29.91 in 10.0 mi South 11.5 mph - 0.00 in   Overcast
8:53 PM 57.9 °F 48.9 °F 72% 29.89 in 10.0 mi South 13.8 mph - 0.00 in Rain Light Rain
9:53 PM 59.0 °F 48.0 °F 67% 29.88 in 10.0 mi South 15.0 mph 23.0 mph 0.01 in   Overcast
10:53 PM 57.9 °F 46.9 °F 67% 29.86 in 10.0 mi SSW 15.0 mph - 0.00 in   Overcast
11:53 PM 59.0 °F 46.0 °F 62% 29.85 in 10.0 mi SSW 16.1 mph 27.6 mph N/A   Overcast